This demonstration page uses our WeatherBlox Daily Observations layout. Learn more.

Left ArrowRight Arrow

34.16533, -84.80231

Hourly Observations for July 27, 2017

Temp ( °F °C ) Dew Point ( °F °C ) Humidity (%) Winds ( mph kmh ) Pressure ( in mb ) Visibility ( mi km ) Precip ( " mm )
12:53 am 00:53 Mostly Cloudy 76 24.4 74 23.3 94 94 Calm 30.06 1018 9 14 0.00 0.00
1:53 am 01:53 Cloudy 76 24.4 74 23.3 94 94 Calm 30.05 1018 9 14 0.00 0.00
2:53 am 02:53 Cloudy 74 23.3 74 23.3 100 100 SSE 5 7 30.04 1017 8 13 0.00 0.00
3:53 am 03:53 Cloudy 75 23.9 72 22.2 90 90 Calm 30.03 1017 9 14 0.00 0.00
4:53 am 04:53 Mostly Clear 74 23.3 71 21.7 91 91 Calm 30.04 1017 9 14 0.00 0.00
5:53 am 05:53 Mostly Clear 72 22.2 72 22.2 100 100 Calm 30.04 1017 9 14 0.00 0.00
6:53 am 06:53 Sunny 70 21.1 70 21.1 100 100 Calm 30.05 1018 7 11 0.00 0.00
7:53 am 07:53 Partly Cloudy 74 23.3 71 21.7 91 91 NE 3 6 30.06 1018 8 13 0.00 0.00
8:53 am 08:53 Sunny 77 25 72 22.2 85 85 Calm 30.06 1018 8 13 0.00 0.00
9:53 am 09:53 Sunny 81 27.2 75 23.9 82 82 S 5 7 30.06 1018 8 13 0.00 0.00
10:53 am 10:53 Sunny 83 28.3 75 23.9 77 77 VRB 5 7 30.05 1018 8 13 0.00 0.00
11:53 am 11:53 Sunny 86 30 76 24.4 72 72 SSE 5 7 30.04 1017 8 13 0.00 0.00
12:53 pm 12:53 Sunny 88 31.1 77 25 70 70 VRB 3 6 30.02 1017 8 13 0.00 0.00
1:53 pm 13:53 Sunny 88 31.1 77 25 70 70 Calm 29.99 1016 8 13 0.00 0.00
2:53 pm 14:53 Mostly Sunny 91 32.8 75 23.9 59 59 VRB 3 6 29.96 1015 8 13 0.00 0.00
3:22 pm 15:22 Partly Cloudy with Nearby Thunderstorms 89 31.7 75 23.9 63 63 VRB 3 6 29.97 1015 8 13 0.00 0.00
3:40 pm 15:40 Mostly Cloudy 84 28.9 75 23.9 74 74 NNW 9 15 29.97 1015 8 13 0.00 0.00
3:48 pm 15:48 Cloudy with Thunderstorms 79 26 75 24 89 89 VRB 5 7 29.97 1015 3 4 0.06 1.52
3:53 pm 15:53 Cloudy with Strong Thunderstorms 76 24.4 76 24.4 100 100 SSE 5 7 29.96 1015 1 2 0.15 3.81
4:01 pm 16:01 Mostly Cloudy with Nearby Thunderstorms 77 25 77 25 100 100 SSE 8 13 29.97 1015 2 3 0.00 0.03
4:08 pm 16:08 Mostly Cloudy with Nearby Thunderstorms 77 25 77 25 100 100 W 3 6 29.97 1015 8 13 0.00 0.03
4:30 pm 16:30 Partly Cloudy with Thunderstorms 77 25 75 23.9 94 94 Calm 29.97 1015 10 16 0.00 0.03
4:53 pm 16:53 Sunny with Nearby Thunderstorms 76 24.4 75 23.9 97 97 ENE 3 6 29.96 1015 10 16 0.00 0.03
5:09 pm 17:09 Sunny 76 24.4 75 23.9 97 97 VRB 3 6 30.00 1016 10 16 0.00 0.00
5:53 pm 17:53 Sunny 78 25.6 76 24.4 93 93 S 3 6 29.95 1014 10 16 0.00 0.00
6:53 pm 18:53 Sunny 81 27.2 76 24.4 85 85 Calm 29.92 1013 10 16 0.00 0.00
7:53 pm 19:53 Mostly Cloudy 78 25.6 77 25 97 97 Calm 29.95 1014 9 14 0.00 0.00
8:53 pm 20:53 Clear 77 25 75 23.9 94 94 Calm 29.93 1013 10 16 0.00 0.00
9:53 pm 21:53 Clear 76 24.4 75 23.9 97 97 Calm 29.93 1014 9 14 0.00 0.00
10:53 pm 22:53 Clear 74 23.3 74 23.3 100 100 Calm 29.93 1014 9 14 0.00 0.00
11:53 pm 23:53 Clear 73 22.8 73 22.8 100 100 Calm 29.93 1014 8 13 0.00 0.00

Powered by AerisWeather